[[{"header":{"parameterUnit":"m.s-1","parameterCategory":1,"la1":30.2991,"la2":30.254,"lo1":-89.0895,"lo2":-89.0444,"dy":0.0017,"dx":0.0017,"nx":28,"ny":28,"refTime":"2025-03-17T09:00:00:Z","depth":0,"parameterNumber":2,"parameterNumberName":"U-component_of_WINDS"},"data":[0,0,0,0,0,0,0,0,0,0,0,0,0,0,0,0,0,0,0,0,0,0,0,0,0,0,0,0,0,0,0,0,0,0,0,0,0,0,0,0,0,0,0,0,0,0,0,0,0,0,0,0,0,0,0,0,0,0,2.7717,2.7718,0,2.7806,2.7807,2.7808,2.78,2.7799,2.7798,2.7796,2.7887,2.7891,2.7894,0,0,0,0,0,0,0,0,0,0,0,0,0,2.7538,2.7542,2.7716,2.7718,2.7719,2.7806,2.7807,2.7808,2.7801,2.7799,2.7797,2.7796,2.7886,2.789,2.7895,0,0,0,0,0,0,0,0,0,0,0,0,0,2.7621,2.7543,2.7716,2.7725,2.7727,2.7806,2.7807,2.7809,2.7801,2.7799,2.7797,2.7795,2.7884,2.789,2.7895,2.797,0,0,2.7912,2.7914,0,0,0,0,0,0,0,0,2.7616,2.7627,2.7723,2.7725,2.7727,2.779,2.7778,2.7863,2.7802,2.7773,2.7796,2.7794,2.7856,2.7864,2.7885,2.7974,2.7978,2.7913,2.7916,2.7918,2.792,0,0,0,0,0,0,0,2.761,2.7623,2.7752,2.7724,2.7727,2.7725,2.7734,2.7794,2.7825,2.7775,2.7775,2.7786,2.7857,2.788,2.7887,2.798,2.7912,2.7917,2.7921,2.7923,2.8135,2.8137,0,0,0,0,0,0,2.7603,2.7619,2.7749,2.7755,2.7665,2.773,2.774,2.7772,2.7824,2.783,2.7787,2.7785,2.7872,2.7881,2.789,2.7981,2.7918,2.7923,2.7927,2.8132,2.8135,2.8138,0,0,0,0,0,0,2.7599,2.7614,2.7745,2.7687,2.7703,2.7735,2.777,2.7775,2.7798,2.7833,2.7839,2.7805,2.787,2.7883,2.795,2.7984,2.7926,2.7931,2.813,2.8133,2.8136,2.8164,0,0,0,0,0,0,2.7594,2.7613,2.7642,2.7687,2.7706,2.7804,2.7773,2.7778,2.7807,2.7805,2.7851,2.7857,2.787,2.7942,2.7956,2.7991,2.7935,2.8127,2.8131,2.8135,2.816,2.8168,2.8174,0,0,0,0,0,2.7587,2.7646,2.7643,2.7659,2.7743,2.7806,2.7817,2.783,2.781,2.7839,2.7862,2.7856,2.7979,2.7949,2.7965,2.8002,2.8125,2.813,2.8135,2.8157,2.8166,2.8174,0,0,0,0,0,0,2.7603,2.7652,2.765,2.7724,2.7761,2.7805,2.7842,2.784,2.7883,2.7879,2.7894,2.7904,2.7972,2.7994,2.796,2.8077,2.8049,2.8057,2.806,2.8069,2.8077,2.8069,2.794,0,0,0,0,0,2.7615,2.7662,2.7702,2.7765,2.7783,2.7809,2.7837,2.7845,2.7883,2.7898,2.7927,2.7964,2.8011,2.8042,2.8087,2.8164,2.8173,2.8197,2.8204,2.821,2.8216,2.8258,2.8269,2.8155,2.8155,2.8155,0,0,2.764,2.7673,2.7702,2.7768,2.7798,2.7846,2.7822,2.7875,2.791,2.7906,2.7972,2.7994,2.8037,2.8109,2.8142,2.8129,2.825,2.8216,2.8221,2.8224,2.8265,2.8275,2.8285,2.8158,2.8158,2.8157,0,0,2.7711,2.7741,2.7796,2.7826,2.7871,2.7888,2.7901,2.7945,2.796,2.8026,2.8024,2.8067,2.8148,2.8179,2.8205,2.8288,2.8284,2.8303,2.834,2.8381,2.839,2.8398,2.8427,2.8437,2.831,2.831,2.831,0,2.7737,2.781,2.7824,2.7877,2.7906,2.7905,2.7961,2.7989,2.8047,2.8067,2.8052,2.8153,2.8182,2.8262,2.8282,2.8304,2.8319,2.8297,2.8387,2.8395,2.8403,2.8431,2.8442,2.8312,2.8312,2.8311,2.8311,0,2.7839,2.7889,2.7928,2.7984,2.8018,2.8072,2.8094,2.8127,2.8132,2.8151,2.8218,2.8253,2.8305,2.8325,2.833,2.8405,2.8396,2.8384,2.8356,2.8416,2.8442,2.8453,2.8315,2.8314,2.8313,2.8313,0,0,2.792,2.7984,2.7998,2.8023,2.8073,2.8113,2.8167,2.8218,2.8246,2.8286,2.8331,2.84,2.839,2.8419,2.8428,2.8464,2.8527,2.8448,2.8449,2.846,2.8612,2.8619,2.8632,2.8525,2.8527,2.8529,2.8608,0,2.7995,2.8091,2.8106,2.819,2.8237,2.8237,2.8284,2.832,2.834,2.8382,2.8404,2.8452,2.8435,2.8453,2.8488,2.8512,2.8558,2.8507,2.8567,2.8569,2.8555,2.8646,2.8654,2.8726,2.8618,2.862,2.8622,0,2.8095,2.8138,2.8227,2.8271,2.8291,2.8333,2.8382,2.8423,2.8463,2.8475,2.8509,2.8513,2.8569,2.854,2.8617,2.8582,2.8608,2.8624,2.8627,2.8632,2.8598,2.8652,2.875,2.876,2.8638,2.8637,2.8636,0,2.8144,2.8225,2.8288,2.831,2.8363,2.8392,2.8416,2.8455,2.8485,2.8528,2.8547,2.8596,2.8622,2.866,2.8678,2.8655,2.8754,2.8726,2.8764,2.8764,2.8784,2.8782,2.8886,2.8803,2.8802,2.8802,2.8802,0,2.8226,2.828,2.8311,2.835,2.841,2.8427,2.8487,2.851,2.8544,2.8588,2.8592,2.8632,2.8654,2.8697,2.8712,2.8773,2.8785,2.8796,2.8799,2.8795,2.8793,2.8811,2.8805,2.8805,2.8804,2.8804,2.8803,0,2.829,2.8313,2.8382,2.8427,2.844,2.8483,2.8521,2.8559,2.8579,2.8633,2.8647,2.8678,2.873,2.8751,2.8815,2.8825,2.8895,2.8895,2.8881,2.8881,2.8918,2.8914,2.9036,2.9053,2.8959,2.896,2.8961,0,2.834,2.8382,2.8431,2.8461,2.8485,2.8532,2.8563,2.8582,2.8614,2.8664,2.8696,2.8748,2.879,2.8873,2.8901,2.8949,2.895,2.8989,2.8957,2.8951,2.8949,2.8946,2.895,2.8994,2.8995,2.8996,2.8997,0,2.8425,2.8435,2.848,2.8529,2.8565,2.8605,2.8643,2.8667,2.8692,2.8728,2.8781,2.8814,2.8879,2.893,2.8981,2.9005,2.9005,2.9007,2.9018,2.9014,2.9004,2.9009,2.8896,2.9004,2.9003,2.9002,2.9002,2.9002,2.8483,2.852,2.8561,2.8611,2.8642,2.8678,2.8715,2.874,2.8785,2.8839,2.8848,2.8904,2.8945,2.9013,2.9039,2.9083,2.9073,2.909,2.9094,2.9097,2.9099,2.8998,2.9093,2.9093,2.9092,2.9092,2.9092,0,2.8568,2.8595,2.864,2.8694,2.8733,2.8731,2.8773,2.8806,2.8856,2.8893,2.8935,2.8996,2.9046,2.9079,2.9129,2.9159,2.916,2.9171,2.9168,2.9174,2.9106,2.909,2.9169,2.9169,2.9169,2.9169,2.9169,2.9169,2.8617,2.8679,2.8693,2.8771,2.8797,2.8853,2.8877,2.8911,2.8941,2.9009,2.905,2.9071,2.9107,2.916,2.9206,2.9214,2.9232,2.9244,2.9251,2.9187,2.9179,2.9171,2.9156,2.9248,2.9248,2.9316,2.9316,2.9317]},{"header":{"parameterUnit":"m.s-1","parameterCategory":1,"la1":30.2991,"la2":30.254,"lo1":-89.0895,"lo2":-89.0444,"dy":0.0017,"dx":0.0017,"nx":28,"ny":28,"refTime":"2025-03-17T09:00:00:Z","depth":0,"parameterNumber":3,"parameterNumberName":"V-component_of_WINDS"},"data":[0,0,0,0,0,0,0,0,0,0,0,0,0,0,0,0,0,0,0,0,0,0,0,0,0,0,0,0,0,0,0,0,0,0,0,0,0,0,0,0,0,0,0,0,0,0,0,0,0,0,0,0,0,0,0,0,0,0,-2.9422,-2.9424,0,-2.9597,-2.9599,-2.9601,-2.9603,-2.9601,-2.9599,-2.9596,-2.9777,-2.9784,-2.979,0,0,0,0,0,0,0,0,0,0,0,0,0,-2.9091,-2.9097,-2.9422,-2.9424,-2.9427,-2.9597,-2.96,-2.9602,-2.9603,-2.9601,-2.9598,-2.9595,-2.9775,-2.9783,-2.9791,0,0,0,0,0,0,0,0,0,0,0,0,0,-2.9248,-2.9099,-2.9422,-2.9448,-2.9452,-2.9597,-2.96,-2.9603,-2.9604,-2.9601,-2.9597,-2.9594,-2.9772,-2.9782,-2.9792,-2.9923,0,0,-2.9824,-2.9828,0,0,0,0,0,0,0,0,-2.9239,-2.926,-2.9442,-2.9446,-2.9451,-2.9575,-2.9549,-2.971,-2.9605,-2.9546,-2.9596,-2.9592,-2.9712,-2.9727,-2.9768,-2.9931,-2.9939,-2.9825,-2.9831,-2.9835,-2.9838,0,0,0,0,0,0,0,-2.9228,-2.9252,-2.9492,-2.9445,-2.945,-2.9452,-2.947,-2.958,-2.9646,-2.9551,-2.9552,-2.9572,-2.9714,-2.9758,-2.9772,-2.9942,-2.9824,-2.9833,-2.984,-2.9844,-3.0223,-3.0227,0,0,0,0,0,0,-2.9212,-2.9243,-2.9486,-2.9497,-2.9334,-2.946,-2.9481,-2.9539,-2.9645,-2.9658,-2.9575,-2.9572,-2.9742,-2.976,-2.9778,-2.9939,-2.9835,-2.9845,-2.9851,-3.0219,-3.0224,-3.0228,0,0,0,0,0,0,-2.9204,-2.9233,-2.9479,-2.937,-2.9402,-2.9469,-2.9534,-2.9544,-2.9587,-2.9663,-2.9675,-2.9607,-2.974,-2.9764,-2.9887,-2.9946,-2.985,-2.9859,-3.0215,-3.0221,-3.0226,-3.0262,0,0,0,0,0,0,-2.9195,-2.9231,-2.928,-2.9371,-2.9407,-2.9584,-2.9538,-2.955,-2.9605,-2.9602,-2.9696,-2.9708,-2.9739,-2.9872,-2.9897,-2.9958,-2.9867,-3.021,-3.0217,-3.0224,-3.0256,-3.0268,-3.0279,0,0,0,0,0,-2.9183,-2.9284,-2.9283,-2.9312,-2.9471,-2.9588,-2.9609,-2.9641,-2.9609,-2.9661,-2.971,-2.9705,-2.9935,-2.9884,-2.9913,-2.9978,-3.0206,-3.0215,-3.0224,-3.0251,-3.0266,-3.0279,0,0,0,0,0,0,-2.9198,-2.9296,-2.9296,-2.9429,-2.95,-2.9588,-2.9653,-2.9656,-2.9738,-2.9732,-2.977,-2.9791,-2.9914,-2.9958,-2.99,-3.0111,-3.0067,-3.0082,-3.0078,-3.0093,-3.0104,-3.0091,-2.9876,0,0,0,0,0,-2.9217,-2.9303,-2.9384,-2.9493,-2.9529,-2.9585,-2.9637,-2.9656,-2.9731,-2.9762,-2.9819,-2.9893,-2.9982,-3.004,-3.0125,-3.0262,-3.0283,-3.0321,-3.0333,-3.0342,-3.0354,-3.0431,-3.0449,-3.0257,-3.0257,-3.0257,0,0,-2.9256,-2.932,-2.9372,-2.9498,-2.9555,-2.9644,-2.961,-2.9705,-2.9772,-2.9776,-2.9896,-2.9942,-3.0026,-3.0157,-3.0218,-3.0198,-3.0412,-3.0353,-3.0359,-3.0367,-3.0442,-3.046,-3.0476,-3.0263,-3.0262,-3.0261,0,0,-2.9374,-2.943,-2.9528,-2.9587,-2.9674,-2.9711,-2.9734,-2.9822,-2.9852,-2.9973,-2.9979,-3.0059,-3.0211,-3.0271,-3.0322,-3.0464,-3.0464,-3.0491,-3.0551,-3.0626,-3.0641,-3.0655,-3.0706,-3.0724,-3.0503,-3.0503,-3.0503,0,-2.9412,-2.9546,-2.9578,-2.9674,-2.973,-2.9738,-2.9838,-2.9893,-3.0004,-3.0042,-3.0018,-3.021,-3.0267,-3.0413,-3.0448,-3.0488,-3.0517,-3.048,-3.0636,-3.065,-3.0663,-3.0713,-3.0732,-3.0506,-3.0506,-3.0505,-3.0505,0,-2.9589,-2.9682,-2.975,-2.9857,-2.9921,-3.0018,-3.0066,-3.0127,-3.0141,-3.018,-3.0304,-3.0374,-3.0474,-3.051,-3.0525,-3.0659,-3.0644,-3.0628,-3.0584,-3.0684,-3.0731,-3.075,-3.051,-3.0509,-3.0508,-3.0507,0,0,-2.9721,-2.9845,-2.9869,-2.9919,-3.0016,-3.0089,-3.0187,-3.0285,-3.0337,-3.0413,-3.0497,-3.0626,-3.0612,-3.067,-3.0691,-3.0757,-3.0866,-3.0732,-3.0735,-3.0756,-3.102,-3.1032,-3.1053,-3.0866,-3.087,-3.0873,-3.1013,0,-2.9849,-3.0023,-3.0056,-3.0208,-3.0295,-3.0304,-3.039,-3.046,-3.05,-3.058,-3.0624,-3.0715,-3.0689,-3.0724,-3.0789,-3.0839,-3.092,-3.0829,-3.0946,-3.095,-3.0925,-3.1078,-3.1091,-3.1219,-3.1031,-3.1035,-3.1037,0,-3.0022,-3.0103,-3.0264,-3.0351,-3.0388,-3.0465,-3.0558,-3.0634,-3.0714,-3.0738,-3.0803,-3.0818,-3.0921,-3.0873,-3.1017,-3.0955,-3.1005,-3.1037,-3.1042,-3.1055,-3.1,-3.1095,-3.1261,-3.1281,-3.1066,-3.1064,-3.1062,0,-3.0103,-3.0252,-3.0368,-3.041,-3.0513,-3.0567,-3.0613,-3.0689,-3.0747,-3.0828,-3.0866,-3.0959,-3.101,-3.1082,-3.1122,-3.1083,-3.1264,-3.1218,-3.1288,-3.1287,-3.1326,-3.1323,-3.1503,-3.1357,-3.1357,-3.1356,-3.1356,0,-3.0244,-3.0342,-3.0406,-3.0477,-3.0588,-3.0625,-3.0734,-3.0779,-3.0847,-3.0928,-3.0942,-3.1017,-3.1065,-3.1148,-3.118,-3.1295,-3.1318,-3.1341,-3.1349,-3.1341,-3.1338,-3.1374,-3.1367,-3.1361,-3.136,-3.1359,-3.1358,0,-3.0353,-3.0399,-3.0526,-3.0614,-3.0639,-3.0717,-3.0793,-3.0863,-3.0903,-3.1005,-3.1031,-3.1095,-3.1194,-3.124,-3.1362,-3.1384,-3.1515,-3.1516,-3.1488,-3.1491,-3.1559,-3.1552,-3.1768,-3.1799,-3.1632,-3.1633,-3.1635,0,-3.044,-3.0516,-3.0612,-3.0667,-3.0714,-3.0802,-3.0861,-3.0901,-3.0962,-3.1059,-3.1118,-3.1217,-3.1298,-3.1455,-3.1513,-3.1607,-3.1611,-3.168,-3.1625,-3.1615,-3.1613,-3.1609,-3.1617,-3.169,-3.1692,-3.1693,-3.1694,0,-3.0589,-3.0609,-3.0693,-3.0785,-3.0855,-3.093,-3.1003,-3.1048,-3.11,-3.1167,-3.1268,-3.1331,-3.1457,-3.1555,-3.1653,-3.1701,-3.1708,-3.1711,-3.1733,-3.1725,-3.1707,-3.1719,-3.1516,-3.1706,-3.1705,-3.1704,-3.1703,-3.1703,-3.0691,-3.0759,-3.0838,-3.0931,-3.0991,-3.1059,-3.113,-3.1179,-3.1264,-3.1368,-3.1387,-3.1495,-3.1574,-3.1706,-3.1758,-3.1843,-3.1827,-3.1858,-3.1866,-3.1873,-3.1877,-3.1692,-3.1861,-3.1861,-3.186,-3.186,-3.186,0,-3.0842,-3.0893,-3.0979,-3.1081,-3.1155,-3.1153,-3.1235,-3.1297,-3.1392,-3.1464,-3.1544,-3.1661,-3.1757,-3.1823,-3.192,-3.1977,-3.1982,-3.2001,-3.1998,-3.2009,-3.1885,-3.1857,-3.1995,-3.1995,-3.1995,-3.1995,-3.1995,-3.1995,-3.093,-3.1045,-3.1074,-3.122,-3.1271,-3.1376,-3.1423,-3.1487,-3.1546,-3.1675,-3.1755,-3.1797,-3.1868,-3.1971,-3.2059,-3.2076,-3.2112,-3.2132,-3.2149,-3.2032,-3.2018,-3.2004,-3.1978,-3.2139,-3.2139,-3.2266,-3.2267,-3.2268]}]]